Meteo pe oră la Almada

Astăzi, 18 Ianuarie, Luni

Timp Temperatura Precipitaţii Vânt Presiune Umiditate
00:00 +7°C° 0 mm 2 m/s 768 mmHg 75%
01:00 +7°C° 0 mm 2 m/s 767 mmHg 75%
02:00 +6°C° 0 mm 2 m/s 767 mmHg 76%
03:00 +6°C° 0 mm 2 m/s 767 mmHg 76%
04:00 +5°C° 0 mm 3 m/s 767 mmHg 76%
05:00 +4°C° 0 mm 3 m/s 767 mmHg 76%
06:00 +5°C° 0 mm 3 m/s 767 mmHg 74%
07:00 +5°C° 0 mm 3 m/s 767 mmHg 72%
08:00 +5°C° 0 mm 3 m/s 767 mmHg 70%
09:00 +8°C° 0 mm 3 m/s 767 mmHg 63%
10:00 +10°C° 0 mm 3 m/s 768 mmHg 57%
11:00 +13°C° 0 mm 2 m/s 768 mmHg 50%
12:00 +13°C° 0 mm 2 m/s 767 mmHg 49%
13:00 +14°C° 0 mm 1 m/s 766 mmHg 47%
14:00 +15°C° 0 mm 1 m/s 765 mmHg 46%
15:00 +14°C° 0 mm 1 m/s 766 mmHg 52%
16:00 +12°C° 0 mm 1 m/s 766 mmHg 58%
17:00 +10°C° 0 mm 1 m/s 766 mmHg 65%
18:00 +10°C° 0 mm 1 m/s 766 mmHg 67%
19:00 +9°C° 0 mm 1 m/s 766 mmHg 70%
20:00 +9°C° 0 mm 1 m/s 766 mmHg 72%
21:00 +9°C° 0 mm 1 m/s 766 mmHg 75%
22:00 +8°C° 0 mm 1 m/s 767 mmHg 78%
23:00 +7°C° 0 mm 2 m/s 767 mmHg 81%

Mâine, 19 Ianuarie, Marţi

Timp Temperatura Precipitaţii Vânt Presiune Umiditate
00:00 +7°C° 0 mm 2 m/s 766 mmHg 83%
01:00 +7°C° 0 mm 2 m/s 766 mmHg 86%
02:00 +7°C° 0 mm 2 m/s 765 mmHg 88%
03:00 +7°C° 0 mm 3 m/s 765 mmHg 89%
04:00 +7°C° 0 mm 3 m/s 765 mmHg 91%
05:00 +5°C° 0 mm 3 m/s 764 mmHg 92%
06:00 +7°C° 0 mm 3 m/s 764 mmHg 90%
07:00 +7°C° 0 mm 3 m/s 764 mmHg 89%
08:00 +8°C° 0 mm 3 m/s 764 mmHg 87%
09:00 +8°C° 0 mm 4 m/s 764 mmHg 83%
10:00 +11°C° 0 mm 4 m/s 764 mmHg 79%
11:00 +12°C° 0 mm 4 m/s 764 mmHg 75%
12:00 +13°C° 0 mm 5 m/s 763 mmHg 73%
13:00 +13°C° 0 mm 6 m/s 762 mmHg 71%
14:00 +14°C° 0 mm 6 m/s 762 mmHg 69%
15:00 +13°C° 0 mm 6 m/s 761 mmHg 72%
16:00 +13°C° 0 mm 6 m/s 761 mmHg 75%
17:00 +12°C° 0 mm 7 m/s 760 mmHg 77%
18:00 +12°C° 0 mm 7 m/s 760 mmHg 78%
19:00 +12°C° 0 mm 7 m/s 759 mmHg 78%
20:00 +11°C° 0 mm 8 m/s 759 mmHg 79%
21:00 +12°C° 0.2 mm 9 m/s 758 mmHg 80%
22:00 +12°C° 0.2 mm 10 m/s 757 mmHg 80%
23:00 +12°C° 0.2 mm 11 m/s 757 mmHg 81%

Poimâine, 20 Ianuarie, Miercuri

Timp Temperatura Precipitaţii Vânt Presiune Umiditate
00:00 +12°C° 3.3 mm 12 m/s 756 mmHg 85%
01:00 +12°C° 3.3 mm 12 m/s 755 mmHg 88%
02:00 +12°C° 3.3 mm 13 m/s 754 mmHg 91%
03:00 +12°C° 1.8 mm 11 m/s 754 mmHg 91%
04:00 +12°C° 1.8 mm 9 m/s 753 mmHg 91%
05:00 +12°C° 1.8 mm 8 m/s 753 mmHg 90%
06:00 +12°C° 0.3 mm 7 m/s 753 mmHg 88%
07:00 +12°C° 0.3 mm 7 m/s 753 mmHg 86%
08:00 +13°C° 0.3 mm 6 m/s 753 mmHg 84%
09:00 +12°C° 0.1 mm 7 m/s 753 mmHg 80%
10:00 +13°C° 0.1 mm 8 m/s 754 mmHg 75%
11:00 +15°C° 0.1 mm 9 m/s 754 mmHg 71%
12:00 +15°C° 0.4 mm 9 m/s 754 mmHg 73%
13:00 +13°C° 0.4 mm 9 m/s 754 mmHg 75%
14:00 +13°C° 0.4 mm 10 m/s 754 mmHg 76%
15:00 +13°C° 0.5 mm 9 m/s 754 mmHg 79%
16:00 +12°C° 0.5 mm 9 m/s 754 mmHg 82%
17:00 +12°C° 0.5 mm 8 m/s 755 mmHg 84%
18:00 +12°C° 0.2 mm 8 m/s 755 mmHg 85%
19:00 +12°C° 0.2 mm 8 m/s 756 mmHg 86%
20:00 +12°C° 0.2 mm 8 m/s 757 mmHg 87%
21:00 +12°C° 0.1 mm 7 m/s 757 mmHg 87%
22:00 +12°C° 0.1 mm 7 m/s 757 mmHg 88%
23:00 +12°C° 0.1 mm 7 m/s 758 mmHg 89%

21 Ianuarie, Joi

Timp Temperatura Precipitaţii Vânt Presiune Umiditate
00:00 +13°C° 0.1 mm 6 m/s 758 mmHg 89%
01:00 +11°C° 0.1 mm 6 m/s 758 mmHg 89%
02:00 +11°C° 0.1 mm 6 m/s 758 mmHg 90%
03:00 +11°C° 0 mm 6 m/s 758 mmHg 90%
04:00 +11°C° 0 mm 6 m/s 758 mmHg 91%
05:00 +11°C° 0 mm 6 m/s 758 mmHg 91%
06:00 +13°C° 0 mm 6 m/s 758 mmHg 90%
07:00 +12°C° 0 mm 7 m/s 758 mmHg 89%
08:00 +12°C° 0 mm 7 m/s 758 mmHg 88%
09:00 +13°C° 0 mm 8 m/s 758 mmHg 86%
10:00 +15°C° 0 mm 9 m/s 758 mmHg 83%
11:00 +14°C° 0 mm 10 m/s 758 mmHg 80%
12:00 +14°C° 0.5 mm 10 m/s 758 mmHg 83%
13:00 +14°C° 0.5 mm 10 m/s 757 mmHg 87%
14:00 +14°C° 0.5 mm 10 m/s 757 mmHg 90%
15:00 +15°C° 0.4 mm 9 m/s 757 mmHg 90%
16:00 +15°C° 0.4 mm 8 m/s 757 mmHg 91%
17:00 +14°C° 0.4 mm 6 m/s 757 mmHg 91%
18:00 +14°C° 0.2 mm 6 m/s 757 mmHg 92%
19:00 +14°C° 0.2 mm 6 m/s 757 mmHg 92%
20:00 +14°C° 0.2 mm 5 m/s 758 mmHg 93%
21:00 +14°C° 0.3 mm 6 m/s 757 mmHg 92%
22:00 +14°C° 0.3 mm 6 m/s 757 mmHg 91%
23:00 +14°C° 0.3 mm 7 m/s 757 mmHg 90%

22 Ianuarie, Vineri

Timp Temperatura Precipitaţii Vânt Presiune Umiditate
00:00 +14°C° 0.7 mm 7 m/s 757 mmHg 89%
01:00 +13°C° 0.7 mm 8 m/s 757 mmHg 89%
02:00 +13°C° 0.7 mm 8 m/s 757 mmHg 88%
03:00 +12°C° 0.1 mm 8 m/s 757 mmHg 87%
04:00 +12°C° 0.1 mm 8 m/s 757 mmHg 86%
05:00 +12°C° 0.1 mm 8 m/s 757 mmHg 85%
06:00 +12°C° 0.1 mm 8 m/s 758 mmHg 81%
07:00 +12°C° 0.1 mm 9 m/s 759 mmHg 77%
08:00 +11°C° 0.1 mm 9 m/s 759 mmHg 73%
09:00 +12°C° 0.1 mm 9 m/s 760 mmHg 69%
10:00 +13°C° 0.1 mm 9 m/s 760 mmHg 66%
11:00 +15°C° 0.1 mm 9 m/s 761 mmHg 62%
12:00 +15°C° 0.1 mm 9 m/s 761 mmHg 61%
13:00 +15°C° 0.1 mm 9 m/s 761 mmHg 60%
14:00 +13°C° 0.1 mm 8 m/s 761 mmHg 59%
15:00 +13°C° 0 mm 8 m/s 761 mmHg 63%
16:00 +12°C° 0 mm 7 m/s 762 mmHg 67%
17:00 +11°C° 0 mm 7 m/s 762 mmHg 70%
18:00 +10°C° 0 mm 6 m/s 763 mmHg 72%
19:00 +10°C° 0 mm 6 m/s 763 mmHg 73%
20:00 +10°C° 0 mm 6 m/s 764 mmHg 74%
21:00 +10°C° 0 mm 5 m/s 764 mmHg 76%
22:00 +9°C° 0 mm 5 m/s 764 mmHg 79%
23:00 +10°C° 0 mm 4 m/s 764 mmHg 81%

23 Ianuarie, Sâmbătă

Timp Temperatura Precipitaţii Vânt Presiune Umiditate
00:00 +10°C° 0 mm 4 m/s 764 mmHg 82%
01:00 +9°C° 0 mm 5 m/s 764 mmHg 82%
02:00 +9°C° 0 mm 5 m/s 764 mmHg 83%
03:00 +9°C° 0 mm 5 m/s 764 mmHg 83%
04:00 +10°C° 0 mm 4 m/s 764 mmHg 83%
05:00 +10°C° 0 mm 4 m/s 764 mmHg 83%
06:00 +10°C° 0 mm 4 m/s 764 mmHg 82%
07:00 +10°C° 0 mm 3 m/s 765 mmHg 80%
08:00 +11°C° 0 mm 3 m/s 765 mmHg 79%
09:00 +12°C° 0 mm 4 m/s 765 mmHg 75%
10:00 +14°C° 0 mm 4 m/s 765 mmHg 70%
11:00 +15°C° 0 mm 5 m/s 765 mmHg 66%
12:00 +15°C° 0.1 mm 5 m/s 764 mmHg 69%
13:00 +15°C° 0.1 mm 6 m/s 764 mmHg 73%
14:00 +15°C° 0.1 mm 6 m/s 763 mmHg 76%
15:00 +14°C° 0 mm 6 m/s 763 mmHg 80%
16:00 +14°C° 0 mm 5 m/s 763 mmHg 83%
17:00 +13°C° 0 mm 5 m/s 763 mmHg 86%
18:00 +13°C° 0 mm 6 m/s 763 mmHg 86%
19:00 +13°C° 0 mm 6 m/s 763 mmHg 86%
20:00 +13°C° 0 mm 6 m/s 763 mmHg 85%
21:00 +14°C° 0 mm 7 m/s 763 mmHg 87%
22:00 +14°C° 0 mm 7 m/s 763 mmHg 88%
23:00 +13°C° 0 mm 8 m/s 763 mmHg 90%
Arată mai mult

Formular de consimțământ

Meteoprog și furnizorii noștri de servicii pot stoca și accesa date personale, precum cookies, identificatori de dispozitiv sau alte tehnologii similare pe dispozitivul dumneavoastră și procesa astfel de date pentru a personaliza conținutul și reclamele, dar și pentru a oferi caracteristici de social media și pentru a analiza traficul.

  • Stocarea și/sau accesarea informațiilor pe dispozitivul dumneavoastră

    Cookies, identificatori de dispozitiv sau alte informații pot fi stocate sau accesate pe dispozitiv în scopurile indicate mai sus.

  • Reclame și conținut personalizat, evaluarea reclamelor și a conținutului, informații despre audiențe și dezvoltarea produselor

    Reclamele și conținutul pot fi personalizate pe baza unui profil. Pot fi adăugate date suplimentare pentru a personaliza mai bine reclamele și conținutul. Performanța reclamelor și conținutului poate fi măsurată. Pot fi obținute informații despre utilizatorii care au văzut reclamele și conținutul. Aceste date pot fi utilizate pentru a dezvolta sau îmbunătăți experiența utilizatorilor, sistemele și software-ul.

Dând clic pe ‘Sunt de acord’, permiteți utilizarea cookie-urilor menționate, a identificatorilor de dispozitiv, balizelor web sau altor tehnologii similare. Setările pot fi modificate din browser-ul dispozitivului dumneavoastră.

În anumite scopuri, interesele legitime pot prima asupra consimțământului. Puteți citi mai multe informații în acest sens în Politica privind Confidențialitatea Datelor și Cookie.